Location: Northcutt
(34.7304°N, 84.4305°W)
Time: 13:42:04
(UTC+00:00)

Transit 2A Rocket - All Passes

Search period start: 03 October 2022 00:00
Search period end: 13 October 2022 00:00
Orbit: 593 x 908 km, 66.7° (Epoch: 02 October)

Date Brightness Start Highest point End Pass type
(mag) Time Alt. Az. Time Alt. Az. Time Alt. Az.
03 Oct - 10:23:19 10° S 10:27:28 44° ESE 10:31:33 10° NE visible
03 Oct - 12:07:40 10° W 12:10:10 15° NW 12:12:41 10° NNW daylight
03 Oct - 19:09:27 10° N 19:12:56 19° NE 19:16:37 10° E daylight
03 Oct - 20:50:47 10° NW 20:55:39 51° WSW 21:00:57 10° S daylight
04 Oct - 09:41:26 10° SSE 09:44:45 21° ESE 09:48:01 10° ENE visible
04 Oct - 11:23:20 10° WSW 11:27:03 27° WNW 11:30:46 10° N daylight
04 Oct - 18:28:35 10° NE 18:29:43 11° NE 18:30:50 10° ENE daylight
04 Oct - 20:07:47 10° NNW 20:12:48 86° ENE 20:18:17 10° SSE daylight
05 Oct - 10:39:48 10° SW 10:44:03 55° WNW 10:48:17 10° NNE visible
05 Oct - 19:25:05 10° NNW 19:29:53 46° ENE 19:35:06 10° SE daylight
05 Oct - 21:08:33 10° WNW 21:12:08 19° WSW 21:15:54 10° SSW daylight
06 Oct - 09:56:51 10° SSW 10:01:11 70° ESE 10:05:27 10° NNE visible
06 Oct - 11:43:36 10° NW 11:44:09 10° NW 11:44:43 10° NW daylight
06 Oct - 18:42:40 10° N 18:46:52 26° ENE 18:51:20 10° ESE daylight
06 Oct - 20:24:47 10° NW 20:29:23 35° WSW 20:34:22 10° S daylight
07 Oct - 09:14:30 10° S 09:18:24 33° ESE 09:22:15 10° NE visible
07 Oct - 10:57:50 10° W 11:00:56 19° NW 11:04:02 10° N visible
07 Oct - 18:00:47 10° NNE 18:03:43 15° NE 18:06:47 10° E daylight
07 Oct - 19:41:34 10° NNW 19:46:34 66° WSW 19:52:03 10° SSE daylight
08 Oct - 08:33:02 10° SE 08:35:43 16° ESE 08:38:22 10° ENE visible
08 Oct - 10:13:53 10° SW 10:17:52 35° WNW 10:21:50 10° N visible
08 Oct - 18:58:41 10° NNW 19:03:42 68° ENE 19:09:10 10° SE daylight
08 Oct - 20:43:30 10° W 20:45:48 13° WSW 20:48:10 10° SW daylight
09 Oct - 09:30:36 10° SSW 09:34:54 74° WNW 09:39:13 10° NNE visible
09 Oct - 18:16:05 10° N 18:20:44 37° ENE 18:25:46 10° SE daylight
09 Oct - 19:58:58 10° NW 20:03:06 24° WSW 20:07:30 10° SSW daylight
10 Oct - 08:47:52 10° S 08:52:04 52° ESE 08:56:15 10° NE visible
10 Oct - 10:32:48 10° W 10:34:53 13° NW 10:36:58 10° NNW visible
10 Oct - 17:33:50 10° N 17:37:41 22° NE 17:41:45 10° ESE daylight
10 Oct - 19:15:28 10° NW 19:20:19 45° WSW 19:25:36 10° S daylight
11 Oct - 08:05:48 10° SSE 08:09:20 25° ESE 08:12:50 10° NE visible
11 Oct - 09:48:12 10° WSW 09:51:43 24° NW 09:55:14 10° N visible
11 Oct - 16:52:20 10° NNE 16:54:28 12° NE 16:56:40 10° ENE daylight
11 Oct - 18:32:23 10° NNW 18:37:29 84° WSW 18:43:03 10° SSE daylight
12 Oct - 07:25:04 10° SE 07:26:41 12° ESE 07:28:18 10° E night (unlit)
12 Oct - 09:04:31 10° SW 09:08:41 47° WNW 09:12:51 10° NNE visible
12 Oct - 17:49:37 10° NNW 17:54:34 54° ENE 17:59:58 10° SE daylight
12 Oct - 19:33:28 10° WNW 19:36:47 17° WSW 19:40:14 10° SW daylight
